Regional Weather Roundup
Issued by NWS Northern Indiana

Home | Current Version | Previous Version | Text Only | Print | Product List | Glossary Off
Versions: 1 2 3 4 5 6 7 8 9 10 11 12 13 14 15 16 17 18 19 20 21 22 23 24 25 26 27 28 29 30 31 32 33 34 35 36 37 38 39 40 41 42 43 44 45 46 47 48 49 50

000
ASUS43 KIWX 261800
RWRIWX

KIWX WEATHER ROUNDUP
NATIONAL WEATHER SERVICE NORTHERN INDIANA
200 PM EDT SUN APR 26 2015

NOTE: "FAIR" INDICATES FEW OR NO CLOUDS BELOW 12,000 FEET WITH NO
SIGNIFICANT WEATHER AND/OR OBSTRUCTIONS TO VISIBILITY.

* THESE STATIONS ARE NOT UNDER NWS QUALITY CONTROL. THEY ALSO MAY NOT
  REPORT WEATHER SUCH AS PRECIPITATION OR FOG.

INZ001>027-261900-
NORTHERN INDIANA

CITY           SKY/WX    TMP DP  RH WIND       PRES   REMARKS
GARY*          SUNNY     48  34  57 N14       30.03F
KNOX*          MOSUNNY   54  12  19 N18G24    29.96F
SOUTH BEND     MOSUNNY   55  29  36 NW17G23   29.97F
6HR MIN TEMP:  38; 6HR MAX TEMP:  55;

ELKHART*       MOSUNNY   55  25  30 N9G18     29.95F
GOSHEN         MOSUNNY   56  32  40 N18G24    29.94F
6HR MIN TEMP:  36; 6HR MAX TEMP:  56;

WARSAW*        SUNNY     54  32  43 N7G20     29.94F
ANGOLA*        SUNNY     54  41  62 N9        29.92F
FORT WAYNE     MOSUNNY   55  33  43 N6G21     29.93S
6HR MIN TEMP:  38; 6HR MAX TEMP:  55;

PERU/GRISSOM   MOSUNNY   54  34  46 N13       29.93S
6HR MIN TEMP:  38; 6HR MAX TEMP:  54;


$$
INZ028>050-261900-
CENTRAL INDIANA

CITY           SKY/WX    TMP DP  RH WIND       PRES   REMARKS
LAFAYETTE      MOSUNNY   53  34  48 NE16G22   29.95F
6HR MIN TEMP:  39; 6HR MAX TEMP:  53;

KOKOMO*        MOSUNNY   54  36  50 NE16      29.93F
6HR MIN TEMP:  39; 6HR MAX TEMP:  55;

MUNCIE*        PTSUNNY   54  37  52 NE10      29.91F
6HR MIN TEMP:  38; 6HR MAX TEMP:  54;

INDIANAPOLIS   MOSUNNY   55  34  45 N15G21    29.90S
6HR MIN TEMP:  42; 6HR MAX TEMP:  56;


$$
MIZ043>046-050>051-056>058-064>065-071>073-077>080-261900-
SOUTHWEST LOWER MICHIGAN

CITY           SKY/WX    TMP DP  RH WIND       PRES   REMARKS
BATTLE CREEK   MOSUNNY   55  30  38 N14G20    29.95F
6HR MIN TEMP:  35; 6HR MAX TEMP:  55;

BENTON HARBOR  SUNNY     44  33  65 NW8       30.00S
6HR MIN TEMP:  36; 6HR MAX TEMP:  47;

COLDWATER*     MOSUNNY   54  29  39 N12       29.93S
6HR MIN TEMP:  36; 6HR MAX TEMP:  54;

HILLSDALE*     MOSUNNY   54  29  37 N10G16    29.91F
6HR MIN TEMP:  38; 6HR MAX TEMP:  55;

HOLLAND        PTSUNNY   53  32  44 NW13      29.99S
6HR MIN TEMP:  40; 6HR MAX TEMP:  59;

GRAND RAPIDS   MOSUNNY   56  27  32 SW6       29.96F
6HR MIN TEMP:  37; 6HR MAX TEMP:  57;

KALAMAZOO      MOSUNNY   56  29  35 NE12G17   29.96F
6HR MIN TEMP:  36; 6HR MAX TEMP:  56;

STURGIS*       MOSUNNY   54  30  40 NE5       29.93F
THREE RIVERS*  FAIR      55  30  39 N10       29.95F
6HR MIN TEMP:  37; 6HR MAX TEMP:  55;


$$
OHZ001>008-015>018-024>025-261900-
NORTHWEST OHIO

CITY           SKY/WX    TMP DP  RH WIND       PRES   REMARKS
DEFIANCE       SUNNY     56  30  37 N13       29.91F
6HR MIN TEMP:  39; 6HR MAX TEMP:  57;

FINDLAY        SUNNY     55  31  39 N15G24    29.89S
6HR MIN TEMP:  40; 6HR MAX TEMP:  56;

TOLEDO EXPRESS MOSUNNY   55  28  35 N10G20    29.90S
6HR MIN TEMP:  36; 6HR MAX TEMP:  56;

TOLEDO METCALF SUNNY     54  28  36 NE9G21    29.92S
6HR MIN TEMP:  40; 6HR MAX TEMP:  55;

LIMA           MOSUNNY   52  35  52 NE14      29.89S
6HR MIN TEMP:  36; 6HR MAX TEMP:  53;


$$
AND FOR LAKE MICHIGAN COASTAL AND OPEN LAKE BUOY OBSERVATIONS

STATION/POSITION TEMP    WIND        PRES    VSBY  WAVE
                 AIR SEA DIR/SP/G                  HT/PER
                 (F)     (DEG/KT/KT) (MB)    (MI)  (FT/S)
CALUMET HARBOR    42     330/ 14/ 16   N/A
MICHIGAN CITY     41     340/ 13/ 15   N/A
BURNS HARBOR      41     360/ 10/ 14 1016.9S
SAINT JOSEPH      44     340/ 11/ 13 1016.6R
MICHIGAN CITY     39 45  350/ 12/ 14   N/A           3/ 6
MICHIGAN CITY CG     45              1018.8      6   2

$$
&&


USA.gov is the U.S. government's official web portal to all federal, state and local government web resources and services.